Find Starlink 34912

NORAD ID: 65378 Int'l Des: 2025-190 Owner: SPXS Country: US Constellation: starlink operational
LEOCIRCULAR

当前视图

正在加载3D地球...

关于 Starlink 34912

正在加载描述...

即将过境

Passes for default location (London). Set your location on the main map for personalized predictions.

高度历史

Loading altitude history...

两行轨道根数

1 65378U 25190AD 26151.27415497 .00020493 00000-0 70217-3 0 9998
2 65378 53.1571 144.2619 0001238 91.9866 268.1277 15.30198111 42406
Epoch: May 31, 2026 • Age: 14 hours

当前状态

高度 489.5 km
速度 7.62 km/s
星下点 -41.15°S, 95.11°W
发射日期 Aug 28, 2025
运行时间 0.7 years
类型 internet

技术详情

分类 Payload
质量 575.00 kg
干质量 530.00 kg
总质量 575.00 kg
长度 0.30 m
直径 4.10 m
跨度 29.00 m
形状 Box + pan
制造商 SPXS
平台类型 Starlink V2MO
阶段状态 In Orbit
所有者/国家 SPXS/US

Most Searched